This is the latest recevied weather packets stored in our database for station/object OK2ILA-3. If no packets are shown the sender has not sent any weather packets the latest 10 day(s).
| Time | Temp. | Humidity | Pressure | Rain* | Wind** | Luminosity | Snow |
|---|---|---|---|---|---|---|---|
| 1778202917 | 8.33° C | 3% | 4352 hPa | 0 mm | - | - | - |
| 1778202312 | 8.33° C | 100% | 100.8 hPa | 0 mm | - | - | - |
| 1778201705 | 8.33° C | 79% | 6246.5 hPa | 0 mm | - | - | - |
| 1778201098 | 8.33° C | 51% | 6246.5 hPa | 0 mm | - | - | - |
| 1778200493 | 8.33° C | 4% | 6246.5 hPa | 0 mm | - | - | - |
| 1778199888 | 8.33° C | 12% | 6246.5 hPa | 0 mm | - | - | - |
| 1778199283 | 8.33° C | 79% | 188.8 hPa | 0 mm | - | - | - |
| 1778198677 | 8.33° C | 79% | 4352 hPa | 0 mm | - | - | - |
| 1778198069 | 8.33° C | - | - | 103.89 mm | - | - | - |
| 1778197463 | 8.33° C | 3% | 19.2 hPa | 0 mm | - | - | - |
| 1778196858 | 8.33° C | 51% | 19.2 hPa | 0 mm | - | - | - |
| 1778196251 | 8.33° C | 37% | 19.2 hPa | 0 mm | - | - | - |
| 1778195645 | 8.33° C | 6% | 19.2 hPa | 0 mm | - | - | - |
| 1778195039 | 8.33° C | 3% | 47.5 hPa | 0 mm | - | - | - |
| 1778194433 | 8.33° C | 51% | 47.5 hPa | 0 mm | - | - | - |
| 1778193828 | 8.33° C | 51% | 1641.4 hPa | 0 mm | - | - | - |
| 1778193223 | 8.33° C | 3% | 1641.4 hPa | 0 mm | - | - | - |
| 1778192618 | 8.89° C | 68% | 5683.2 hPa | 0 mm | - | - | - |
| 1778192013 | 8.33° C | 39% | 4096.7 hPa | 0 mm | - | - | - |
| 1778191405 | 8.89° C | 25% | 4352 hPa | 0 mm | - | - | - |
| 1778190797 | 8.89° C | 54% | 4352 hPa | 1.52 mm | - | - | - |
| 1778190192 | 8.89° C | 12% | 9.6 hPa | 1.52 mm | - | - | - |
| 1778189587 | 8.89° C | 8% | 2.2 hPa | 1.52 mm | - | - | - |
| 1778188979 | 8.89° C | 100% | 777.6 hPa | 1.52 mm | - | - | - |
| 1778188373 | 8.89° C | 52% | 777.6 hPa | 1.27 mm | - | - | - |
* Rain latest 24 hours (hover to see other rain measurements)
** Current wind speed in m/s (hover to see current wind gust speed)